Weather History for Waukesha, WI

Change the Weather History Date:

Thursday, February 6, 2014

  Actual Average Record
Temperature  
Mean Temperature 0 °F -  
Max Temperature 5 °F 27 °F 46 °F (1964)
Min Temperature -4 °F 12 °F -13 °F (1982)
Degree Days  
Heating Degree Days 64    
Moisture  
Dew Point -7 °F    
Average Humidity 74    
Maximum Humidity 85    
Minimum Humidity 61    
Precipitation  
Precipitation 0.00 in - - ()
Sea Level Pressure  
Sea Level Pressure 30.32 in    
Wind  
Wind Speed 10 mph (West)    
Max Wind Speed 17 mph    
Max Gust Speed 23 mph    
Visibility 10 miles    
Events      
Averages and records for this station are not official NWS values.
T = Trace of Precipitation, MM = Missing Value Source: NWS Daily Summary

Daily Weather History Graph

Daily Weather History Graph

Search for Another Location

Airport:

Trip Planner

Search our weather history database for the weather conditions in past years. The results will help you decide how hot, cold, wet, or windy it might be!

Date:

Astronomy

Feb. 06, 2014 Rise Set
Actual Time 7:02 AM CST 5:12 PM CST
Civil Twilight 6:32 AM CST 5:42 PM CST
Nautical Twilight 5:58 AM CST 6:15 PM CST
Astronomical Twilight 5:25 AM CST 6:48 PM CST
Moon 10:43 AM CST (2/6) 12:17 AM CST (2/6)
Length of Visible Light 11h 09m
Length of Day
10h 09m
Waxing Crescent, 49% of the Moon is Illuminated
Feb 6
Waxing Crescent
Feb 6
First Quarter
Feb 14
Full
Feb 22
Last Quarter
Mar 1
New

Hourly Weather History & Observations

Time (CST) Temp. Windchill Dew Point Humidity Pressure Visibility Wind Dir Wind Speed Gust Speed Precip Events Conditions
12:15 AM 5.0 °F -8.1 °F -0.4 °F 78% 30.38 in 10.0 mi WNW 8.1 mph - N/A   Clear
12:35 AM 5.0 °F -8.1 °F -0.4 °F 78% 30.37 in 10.0 mi WNW 8.1 mph - N/A   Clear
12:55 AM 3.2 °F -10.3 °F -0.4 °F 85% 30.37 in 10.0 mi WNW 8.1 mph - N/A   Clear
1:15 AM 3.2 °F -9.1 °F -2.2 °F 78% 30.37 in 10.0 mi West 6.9 mph - N/A   Clear
1:35 AM 3.2 °F -11.3 °F -2.2 °F 78% 30.36 in 10.0 mi WNW 9.2 mph - N/A   Clear
1:55 AM 1.4 °F -11.3 °F -4.0 °F 78% 30.37 in 10.0 mi West 6.9 mph - N/A   Scattered Clouds
2:15 AM 1.4 °F -11.3 °F -4.0 °F 78% 30.36 in 10.0 mi West 6.9 mph - N/A   Clear
2:35 AM 1.4 °F -13.5 °F -4.0 °F 78% 30.36 in 10.0 mi WNW 9.2 mph - N/A   Clear
2:55 AM -0.4 °F -14.7 °F -4.0 °F 85% 30.36 in 10.0 mi West 8.1 mph - N/A   Clear
3:15 AM -0.4 °F -14.7 °F -5.8 °F 78% 30.37 in 10.0 mi West 8.1 mph - N/A   Scattered Clouds
3:35 AM -0.4 °F -13.4 °F -5.8 °F 78% 30.36 in 10.0 mi West 6.9 mph - N/A   Overcast
3:55 AM -0.4 °F -13.4 °F -4.0 °F 85% 30.36 in 10.0 mi West 6.9 mph - N/A   Overcast
4:15 AM -0.4 °F -16.7 °F -4.0 °F 85% 30.36 in 10.0 mi West 10.4 mph - N/A   Overcast
4:35 AM -0.4 °F -16.7 °F -4.0 °F 85% 30.36 in 10.0 mi West 10.4 mph - N/A   Overcast
5:45 AM -2.2 °F -19.9 °F -7.6 °F 78% 30.34 in 10.0 mi West 11.5 mph - N/A   Mostly Cloudy
6:45 AM -4.0 °F -20.2 °F -9.4 °F 78% 30.35 in 10.0 mi WSW 9.2 mph - N/A   Clear
7:45 AM -4.0 °F -16.3 °F -7.6 °F 85% 30.35 in 10.0 mi West 5.8 mph - N/A   Clear
9:45 AM -0.4 °F -17.6 °F -7.6 °F 72% 30.35 in 10.0 mi West 11.5 mph - N/A   Clear
10:45 AM -0.4 °F -17.6 °F -5.8 °F 78% 30.36 in 10.0 mi West 11.5 mph - N/A   Clear
11:45 AM 1.4 °F -16.9 °F -5.8 °F 72% 30.34 in 10.0 mi West 13.8 mph 20.7 mph N/A   Scattered Clouds
12:45 PM 3.2 °F -15.3 °F -5.8 °F 66% 30.32 in 10.0 mi West 15.0 mph 20.7 mph N/A   Partly Cloudy
1:45 PM 3.2 °F -15.3 °F -5.8 °F 66% 30.30 in 10.0 mi West 15.0 mph 20.7 mph N/A   Partly Cloudy
2:45 PM 3.2 °F -16.5 °F -7.6 °F 61% 30.29 in 10.0 mi West 17.3 mph 23.0 mph N/A   Clear
3:45 PM 3.2 °F -16.5 °F -7.6 °F 61% 30.29 in 10.0 mi West 17.3 mph 23.0 mph N/A   Clear
4:45 PM 3.2 °F -16.5 °F -7.6 °F 61% 30.27 in 10.0 mi West 17.3 mph 23.0 mph N/A   Clear
5:45 PM -0.4 °F -15.7 °F -9.4 °F 66% 30.26 in 10.0 mi West 9.2 mph - N/A   Clear
6:45 PM -0.4 °F -15.7 °F -9.4 °F 66% 30.28 in 10.0 mi West 9.2 mph - N/A   Clear
7:45 PM -0.4 °F -19.2 °F -9.4 °F 66% 30.28 in 10.0 mi West 13.8 mph - N/A   Clear
8:15 PM -0.4 °F -19.9 °F -9.4 °F 66% 30.29 in 10.0 mi WSW 15.0 mph 20.7 mph N/A   Clear
8:35 PM -0.4 °F -16.7 °F -9.4 °F 66% 30.30 in 10.0 mi WSW 10.4 mph - N/A   Clear
8:45 PM -2.2 °F -21.5 °F -9.4 °F 71% 30.30 in 10.0 mi West 13.8 mph - N/A   Clear
8:55 PM -0.4 °F -20.5 °F -9.4 °F 66% 30.29 in 10.0 mi WSW 16.1 mph 21.9 mph N/A   Clear
9:15 PM -0.4 °F -17.6 °F -9.4 °F 66% 30.29 in 10.0 mi WSW 11.5 mph 17.3 mph N/A   Clear
9:35 PM -0.4 °F -18.4 °F -9.4 °F 66% 30.29 in 10.0 mi WSW 12.7 mph 17.3 mph N/A   Clear
9:55 PM -0.4 °F -19.2 °F -9.4 °F 66% 30.29 in 10.0 mi West 13.8 mph 18.4 mph N/A   Clear
10:15 PM -0.4 °F -18.4 °F -9.4 °F 66% 30.29 in 10.0 mi West 12.7 mph 19.6 mph N/A   Clear
10:35 PM -2.2 °F -18.9 °F -9.4 °F 71% 30.30 in 10.0 mi WSW 10.4 mph - N/A   Clear
10:55 PM -4.0 °F -21.2 °F -9.4 °F 78% 30.30 in 10.0 mi WSW 10.4 mph - N/A   Clear
11:15 PM -4.0 °F -22.1 °F -9.4 °F 78% 30.30 in 10.0 mi WSW 11.5 mph - N/A   Clear
11:35 PM -4.0 °F -23.0 °F -9.4 °F 78% 30.29 in 10.0 mi WSW 12.7 mph 17.3 mph N/A   Clear
11:55 PM -4.0 °F -21.2 °F -9.4 °F 78% 30.29 in 10.0 mi WSW 10.4 mph - N/A   Clear